Stations météo

réclame
Mon MeteoGroup
Woensdrecht, Pays-Bas (6340): Température de l'air & dewpoint: 18.05.2019 04:00:00 - 24.05.2019 04:00:00 (CEST)Woensdrecht, Pays-Bas (6340): Température de l'air 5cm: 18.05.2019 04:00:00 - 24.05.2019 04:00:00 (CEST)Woensdrecht, Pays-Bas (6340): Vitesse du vent & gusts: 18.05.2019 04:00:00 - 24.05.2019 04:00:00 (CEST)Woensdrecht, Pays-Bas (6340): Direction du vent: 18.05.2019 04:00:00 - 24.05.2019 04:00:00 (CEST)Woensdrecht, Pays-Bas (6340): reduced air pressure: 18.05.2019 04:00:00 - 24.05.2019 04:00:00 (CEST)Woensdrecht, Pays-Bas (6340): visibility: 18.05.2019 04:00:00 - 24.05.2019 04:00:00 (CEST)Woensdrecht, Pays-Bas (6340): Quantités de précipitations: 18.05.2019 04:00:00 - 24.05.2019 04:00:00 (CEST)
Date & Time tt [°C] td [°C] tt 5cm [°C] ff [km/h] ff [knt] fx [km/h] fx [knt] dd ppp [hPa] vv [km] rr [mm]
24.05.2019 04:00:00 9,0 7,0 - 0 0 - - N - 10 -
24.05.2019 03:00:00 8,9 7,0 5,4 4 2 4 2 NNE 1014,9 10 0,0
24.05.2019 02:00:00 9,6 7,2 5,5 2 1 4 2 NNE 1015,2 10 0,0
24.05.2019 01:00:00 11,1 8,0 7,9 5 3 7 4 NNE 1015,5 10 0,0
24.05.2019 00:00:00 12,7 8,5 10,4 2 1 4 2 NNE 1015,8 10 0,0
23.05.2019 23:00:00 13,4 8,9 10,6 2 1 7 4 NNE 1015,8 10 0,0
23.05.2019 22:00:00 14,8 9,2 11,9 2 1 4 2 NW 1015,9 10 0,0
23.05.2019 21:00:00 18,0 10,0 16,6 4 2 7 4 NW 1015,8 10 0,0
23.05.2019 20:00:00 20,1 6,9 20,2 4 2 7 4 NW 1015,8 10 0,0
23.05.2019 19:00:00 20,9 5,8 22,4 5 3 14 8 WSW 1016,0 10 0,0
23.05.2019 18:00:00 20,9 4,9 23,0 11 6 18 10 WNW 1016,5 10 0,0
23.05.2019 17:00:00 20,9 3,6 22,0 9 5 22 12 W 1017,0 10 0,0
23.05.2019 16:00:00 20,1 3,9 22,2 15 8 29 16 W 1017,2 10 0,0
23.05.2019 15:00:00 19,9 3,9 21,9 18 10 32 18 W 1017,4 10 0,0
23.05.2019 14:00:00 20,9 5,6 23,2 18 10 32 18 WNW 1017,5 10 0,0
23.05.2019 13:00:00 19,7 5,5 22,0 16 9 32 18 SW 1017,8 10 0,0
23.05.2019 12:00:00 19,3 5,1 21,5 18 10 32 18 SW 1018,1 10 0,0
23.05.2019 11:00:00 18,0 7,0 19,6 16 9 25 14 W 1018,2 10 0,0
23.05.2019 10:00:00 16,2 7,4 18,4 11 6 22 12 WSW 1018,3 10 0,0
23.05.2019 09:00:00 15,1 6,0 16,2 13 7 18 10 SW 1018,4 10 0,0
23.05.2019 08:00:00 13,1 7,1 13,5 4 2 18 10 - 1018,3 10 0,0
23.05.2019 07:00:00 10,4 6,3 9,2 4 2 11 6 - 1018,1 10 0,0
23.05.2019 06:00:00 9,5 4,5 6,5 8 4 14 8 SSE 1018,1 10 0,0
23.05.2019 05:00:00 7,8 4,1 2,6 5 3 11 6 SSE 1018,5 10 0,0
23.05.2019 04:00:00 5,2 3,2 2,3 4 2 7 4 - 1018,9 10 0,0
23.05.2019 03:00:00 5,2 3,9 1,9 2 1 7 4 E 1019,1 10 0,0
23.05.2019 02:00:00 6,0 4,4 2,4 5 3 7 4 ENE 1019,5 10 0,0
23.05.2019 01:00:00 6,4 4,8 3,0 4 2 7 4 NNE 1019,6 10 0,0
23.05.2019 00:00:00 7,4 5,4 3,6 4 2 4 2 NNE 1019,7 10 0,0
22.05.2019 23:00:00 8,8 5,3 4,7 0 0 4 2 N 1019,9 10 0,0
22.05.2019 22:00:00 10,9 6,0 8,6 0 0 4 2 N 1019,9 10 0,0
22.05.2019 21:00:00 15,9 3,9 15,6 4 2 11 6 - 1019,6 10 0,0
22.05.2019 20:00:00 16,9 2,7 17,0 8 4 18 10 N 1019,6 10 0,0
22.05.2019 19:00:00 17,5 3,1 18,8 9 5 22 12 NNW 1019,7 10 0,0
22.05.2019 18:00:00 16,8 8,8 17,4 15 8 29 16 WNW 1020,0 10 0,0
22.05.2019 17:00:00 17,9 9,0 18,9 18 10 25 14 W 1020,0 10 0,0
22.05.2019 16:00:00 17,0 7,3 19,1 21 11 36 19 W 1019,9 10 0,0
22.05.2019 15:00:00 18,2 7,2 20,7 22 12 32 18 WNW 1019,7 10 0,0
22.05.2019 14:00:00 18,1 9,2 19,9 16 9 32 18 W 1019,7 10 0,0
22.05.2019 13:00:00 17,0 9,8 19,1 13 7 29 16 WSW 1019,9 10 0,0
22.05.2019 12:00:00 15,8 8,7 19,1 11 6 22 12 - 1020,0 10 0,0
22.05.2019 11:00:00 14,8 9,5 16,2 11 6 18 10 W 1019,9 10 0,0
22.05.2019 10:00:00 13,8 8,6 15,9 8 4 14 8 WSW 1019,9 10 0,0
22.05.2019 09:00:00 12,6 8,2 14,5 4 2 7 4 - 1019,7 10 0,0
22.05.2019 08:00:00 11,4 8,0 12,4 2 1 7 4 - 1019,7 10 0,0
22.05.2019 07:00:00 10,1 7,8 9,1 4 2 11 6 - 1019,6 10 0,0
22.05.2019 06:00:00 9,9 7,6 9,4 4 2 14 8 - 1019,5 10 0,0
22.05.2019 05:00:00 10,1 7,4 9,8 11 6 14 8 NW 1019,5 10 0,0
22.05.2019 04:00:00 10,4 7,9 10,0 5 3 14 8 NNW 1019,4 10 0,0
22.05.2019 03:00:00 10,4 8,1 10,2 4 2 11 6 - 1019,1 10 0,0
22.05.2019 02:00:00 10,2 8,2 10,0 8 4 14 8 WNW 1018,9 10 0,0
22.05.2019 01:00:00 10,1 8,2 9,6 8 4 14 8 NW 1019,0 10 0,0
22.05.2019 00:00:00 10,4 8,3 10,1 9 5 18 10 WNW 1018,9 10 0,0
21.05.2019 23:00:00 10,5 8,4 10,1 8 4 22 12 WNW 1018,7 10 0,0
21.05.2019 22:00:00 11,1 8,5 10,8 9 5 18 10 WNW 1018,7 10 0,0
21.05.2019 21:00:00 11,6 8,7 11,6 9 5 25 14 NW 1018,3 10 0,0
21.05.2019 20:00:00 12,0 8,7 12,0 16 9 29 16 NW 1017,8 10 0,0
21.05.2019 19:00:00 12,5 9,2 12,8 15 8 32 18 NW 1017,9 10 0,0
21.05.2019 18:00:00 13,6 9,2 14,4 16 9 32 18 NW 1017,4 10 0,0
21.05.2019 17:00:00 15,5 10,0 17,1 18 10 36 19 NW 1017,0 10 0,0
21.05.2019 16:00:00 14,5 8,8 16,8 24 13 40 21 NW 1016,8 10 0,0
21.05.2019 15:00:00 14,9 9,2 17,3 26 14 40 21 WNW 1016,6 10 0,0
21.05.2019 14:00:00 14,0 9,2 15,3 21 11 40 21 NNW 1016,5 10 0,0
21.05.2019 13:00:00 14,3 9,7 15,2 21 11 36 19 NW 1016,0 10 0,0
21.05.2019 12:00:00 12,6 8,8 13,3 21 11 40 21 NNW 1015,6 10 0,0
21.05.2019 11:00:00 12,2 8,8 13,0 22 12 43 23 NW 1015,1 10 0,0
21.05.2019 10:00:00 11,6 8,8 11,8 18 10 32 18 NW 1015,0 10 0,0
21.05.2019 09:00:00 10,8 8,8 11,0 18 10 32 18 NW 1014,5 10 0,0
21.05.2019 08:00:00 10,6 8,5 10,4 13 7 32 18 NW 1013,8 10 0,0
21.05.2019 07:00:00 10,1 8,4 9,9 18 10 29 16 NW 1013,5 10 0,0
21.05.2019 06:00:00 9,8 8,9 9,7 18 10 29 16 WNW 1013,4 8 0,0
21.05.2019 05:00:00 9,9 9,7 10,0 15 8 32 18 WNW 1013,0 2,1 0,0
21.05.2019 04:00:00 10,1 9,7 10,2 16 9 29 16 NW 1012,8 2,8 0,0
21.05.2019 03:00:00 10,2 10,0 10,3 13 7 29 16 NW 1012,7 2,1 0,0
21.05.2019 02:00:00 10,2 9,9 10,3 13 7 32 18 NW 1012,7 2,2 0,0
21.05.2019 01:00:00 10,3 9,9 10,4 15 8 29 16 NW 1012,4 2,9 0,0
21.05.2019 00:00:00 10,6 10,3 10,6 15 8 29 16 NW 1012,7 2,6 0,0
20.05.2019 23:00:00 10,7 10,4 10,7 16 9 25 14 NW 1012,4 3,0 0,0
20.05.2019 22:00:00 10,8 10,3 10,9 15 8 25 14 NW 1012,2 3,3 0,0
20.05.2019 21:00:00 11,4 10,7 11,5 15 8 29 16 NW 1011,5 3,4 0,0
20.05.2019 20:00:00 12,1 11,1 12,2 16 9 29 16 NW 1011,1 3,3 0,0
20.05.2019 19:00:00 12,2 11,1 12,4 15 8 29 16 WNW 1010,8 4,0 0,0
20.05.2019 18:00:00 12,3 10,8 12,7 16 9 29 16 NW 1010,7 7 0,0
20.05.2019 17:00:00 12,8 10,7 13,3 15 8 29 16 WNW 1010,4 10 0,0
20.05.2019 16:00:00 13,8 11,0 14,8 16 9 29 16 WNW 1010,1 10 0,0
20.05.2019 15:00:00 13,4 10,8 14,1 15 8 25 14 WNW 1010,2 10 0,0
20.05.2019 14:00:00 13,1 10,9 13,7 13 7 25 14 NW 1010,1 10 0,0
20.05.2019 13:00:00 12,8 11,1 13,3 15 8 25 14 NW 1009,7 10 0,0
20.05.2019 12:00:00 12,6 11,2 12,9 15 8 25 14 NW 1009,0 10 0,0
20.05.2019 11:00:00 12,6 10,9 12,9 13 7 25 14 NW 1008,8 10 0,0
20.05.2019 10:00:00 12,3 10,8 12,7 13 7 22 12 NW 1008,7 10 0,0
20.05.2019 09:00:00 11,9 10,9 12,1 13 7 22 12 WNW 1008,5 6 0,0
20.05.2019 08:00:00 11,8 10,9 11,8 9 5 18 10 NW 1008,1 6 0,0
20.05.2019 07:00:00 11,4 10,8 11,4 4 2 7 4 - 1007,8 2,7 0,0
20.05.2019 06:00:00 11,0 10,7 11,1 5 3 11 6 NNW 1007,6 2,9 0,1
20.05.2019 05:00:00 11,0 10,7 11,2 8 4 11 6 NW 1007,4 2,1 0,0
20.05.2019 04:00:00 11,2 10,7 11,2 9 5 18 10 N 1007,3 2,6 0,0
20.05.2019 03:00:00 11,4 11,1 11,5 5 3 14 8 NW 1007,4 2,3 0,0
20.05.2019 02:00:00 11,4 11,2 11,4 8 4 18 10 NW 1007,3 1,5 0,0
20.05.2019 01:00:00 11,3 11,1 11,4 8 4 18 10 NNW 1007,5 1,3 0,0
20.05.2019 00:00:00 11,3 11,1 11,5 8 4 18 10 NNW 1007,4 1,4 0,0
19.05.2019 23:00:00 11,4 10,8 11,6 11 6 18 10 NNW 1007,5 2,7 0,0
19.05.2019 22:00:00 11,4 10,8 11,5 8 4 18 10 NNW 1007,8 2,7 0,0
19.05.2019 21:00:00 11,4 10,9 11,6 13 7 25 14 N 1007,6 2,8 0,0
19.05.2019 20:00:00 12,0 11,0 12,3 13 7 29 16 N 1007,1 3,4 0,0
19.05.2019 19:00:00 12,4 11,0 13,1 18 10 29 16 NNW 1006,6 3,5 0,0
19.05.2019 18:00:00 12,7 11,0 13,5 16 9 32 18 NNW 1006,7 4,4 0,0
19.05.2019 17:00:00 13,2 11,2 14,5 21 11 32 18 NNW 1006,7 5 0,0
19.05.2019 16:00:00 14,9 12,1 16,1 21 11 29 16 NW 1006,4 6 0,0
19.05.2019 15:00:00 15,1 12,5 16,0 15 8 29 16 N 1006,6 6 0,0
19.05.2019 14:00:00 15,0 12,4 16,4 15 8 29 16 NNW 1006,7 6 0,0
19.05.2019 13:00:00 15,7 13,7 17,4 15 8 25 14 N 1006,6 4,6 0,0
19.05.2019 12:00:00 13,4 12,5 13,4 11 6 25 14 NNW 1006,8 2,3 1,8
19.05.2019 11:00:00 13,6 12,2 13,8 15 8 22 12 N 1007,0 3,5 0,2
19.05.2019 10:00:00 13,6 12,2 13,5 8 4 18 10 NW 1006,9 3,7 0,4
19.05.2019 09:00:00 13,2 11,5 13,0 11 6 18 10 N 1006,7 3,9 0,4
19.05.2019 08:00:00 13,4 11,4 13,2 9 5 14 8 NNE 1006,6 3,4 0,0
19.05.2019 07:00:00 12,8 11,2 12,2 8 4 14 8 NNW 1006,2 2,8 0,0
19.05.2019 06:00:00 12,2 10,7 11,0 5 3 14 8 N 1006,2 2,9 0,0
19.05.2019 05:00:00 12,5 10,8 11,7 5 3 11 6 N 1006,2 2,9 0,0
19.05.2019 04:00:00 12,7 11,0 12,2 4 2 11 6 - 1006,4 3,2 0,0
19.05.2019 03:00:00 13,2 10,5 12,5 8 4 14 8 NE 1006,4 4,1 0,0
19.05.2019 02:00:00 13,0 10,4 12,5 8 4 14 8 NNE 1006,6 4,6 0,0
19.05.2019 01:00:00 12,9 10,4 12,3 8 4 11 6 NNE 1007,1 5 0,0
19.05.2019 00:00:00 13,4 9,6 12,9 9 5 14 8 NNE 1007,3 6 0,1
18.05.2019 23:00:00 14,2 9,1 13,6 9 5 14 8 NNE 1007,3 9 0,0
18.05.2019 22:00:00 14,6 9,0 14,1 9 5 22 12 N 1007,0 10 0,0
18.05.2019 21:00:00 15,3 9,0 14,9 11 6 22 12 N 1006,8 10 0,0
18.05.2019 20:00:00 16,3 9,2 16,4 15 8 25 14 N 1006,4 10 0,0
18.05.2019 19:00:00 18,0 9,6 18,9 16 9 25 14 N 1006,0 10 0,0
18.05.2019 18:00:00 19,4 9,8 20,5 15 8 25 14 N 1005,6 10 0,0
18.05.2019 17:00:00 20,0 10,2 22,5 15 8 25 14 NW 1005,6 10 0,0
18.05.2019 16:00:00 20,4 11,2 22,7 18 10 25 14 W 1005,5 10 0,0
18.05.2019 15:00:00 19,3 10,0 22,3 15 8 25 14 W 1005,7 10 0,0
18.05.2019 14:00:00 19,5 10,6 22,2 9 5 22 12 NNW 1005,7 10 0,0
18.05.2019 13:00:00 17,6 8,6 19,6 5 3 14 8 W 1006,0 10 0,0
18.05.2019 12:00:00 16,8 9,6 20,0 5 3 14 8 - 1005,9 10 0,0
18.05.2019 11:00:00 16,2 8,7 19,1 4 2 7 4 - 1006,0 10 0,0
18.05.2019 10:00:00 14,4 8,6 15,9 2 1 7 4 - 1006,0 9 0,0
18.05.2019 09:00:00 12,3 8,9 13,8 4 2 7 4 - 1006,0 8 0,0
18.05.2019 08:00:00 10,8 8,9 10,7 2 1 4 2 NE 1005,7 6 0,0
18.05.2019 07:00:00 8,7 8,0 8,0 5 3 7 4 E 1005,6 6 0,0
18.05.2019 06:00:00 7,2 6,4 6,6 2 1 4 2 E 1005,4 6 0,0
18.05.2019 05:00:00 6,8 5,9 6,3 2 1 7 4 E 1005,6 5 0,0
18.05.2019 04:00:00 6,5 5,5 5,7 4 2 4 2 E 1005,7 7 0,0

tt = Température de l'air
td = dewpoint
tt 5cm = Température de l'air 5cm
ff = Vitesse du vent
fx = gusts
dd = Direction du vent
ppp = reduced air pressure
vv = visibility
rr = Quantités de précipitations

stations d'obs. à proximité